[[{"header":{"parameterUnit":"m.s-1","parameterCategory":1,"la1":30.2992,"la2":30.254,"lo1":-89.0895,"lo2":-89.0443,"dy":0.0025,"dx":0.0025,"nx":19,"ny":19,"refTime":"2026-04-04T03:00:00:Z","depth":0,"parameterNumber":2,"parameterNumberName":"U-component_of_WINDS"},"data":[0,0,0,-1.6252,-1.6254,-1.6335,-1.6336,-1.6448,-1.6449,0,0,0,0,0,0,0,0,0,0,0,-1.6232,-1.6233,-1.6252,-1.6254,-1.6335,-1.6336,-1.6448,-1.6449,0,0,0,0,0,0,0,0,0,0,0,-1.6231,-1.6232,-1.6234,-1.6254,-1.6335,-1.6336,-1.6448,-1.6384,0,0,0,0,0,0,0,0,0,0,-1.6303,-1.6288,-1.6232,-1.6234,-1.6255,-1.6335,-1.6336,-1.638,-1.6388,-1.6415,0,-1.6439,0,-1.6446,-1.6457,-1.6458,0,0,0,-1.6251,-1.6282,-1.63,-1.6234,-1.6255,-1.6335,-1.6298,-1.6384,-1.6393,-1.6424,-1.644,-1.6444,-1.6448,-1.6458,-1.6459,-1.662,-1.6621,0,0,-1.6247,-1.6249,-1.6295,-1.6306,-1.6293,-1.6295,-1.63,-1.6389,-1.6407,-1.6441,-1.6447,-1.645,-1.6459,-1.646,-1.662,-1.6621,0,0,0,-1.6235,-1.6246,-1.6262,-1.6301,-1.6315,-1.6298,-1.6304,-1.6404,-1.6408,-1.6448,-1.6451,-1.646,-1.6461,-1.6619,-1.662,-1.6666,0,0,0,-1.6233,-1.624,-1.626,-1.6262,-1.6314,-1.636,-1.6316,-1.6402,-1.6412,-1.645,-1.646,-1.6462,-1.6618,-1.6619,-1.6662,-1.6688,0,0,0,-1.6225,-1.6239,-1.6252,-1.6262,-1.6297,-1.6359,-1.6369,-1.6404,-1.6414,-1.6458,-1.6463,-1.6617,-1.6619,-1.6659,-1.6683,-1.6731,0,0,0,-1.6218,-1.6292,-1.6252,-1.6336,-1.6297,-1.6386,-1.6368,-1.6435,-1.6478,-1.646,-1.6618,-1.662,-1.6658,-1.668,-1.6728,-1.6773,-1.6791,0,0,-1.6313,-1.6304,-1.6353,-1.632,-1.6416,-1.6373,-1.6477,-1.6515,-1.6517,-1.6586,-1.659,-1.6664,-1.6682,-1.673,-1.6893,-1.6908,0,0,0,-1.6384,-1.6419,-1.6444,-1.6485,-1.6514,-1.6541,-1.6562,-1.6576,-1.6634,-1.6553,-1.6693,-1.6705,-1.6733,-1.6754,-1.6767,-1.6791,-1.6629,-1.6629,-1.6629,-1.6524,-1.6521,-1.6602,-1.6609,-1.6648,-1.6668,-1.67,-1.6722,-1.671,-1.6743,-1.6764,-1.6862,-1.6887,-1.6897,-1.6922,-1.6786,-1.6786,-1.6786,-1.6787,-1.6664,-1.6714,-1.6692,-1.6764,-1.676,-1.682,-1.6842,-1.6831,-1.6887,-1.6847,-1.6871,-1.6829,-1.6913,-1.6935,-1.679,-1.6789,-1.6789,-1.6789,-1.6788,-1.6756,-1.678,-1.6793,-1.685,-1.6894,-1.6899,-1.6953,-1.6948,-1.6944,-1.6969,-1.699,-1.699,-1.6989,-1.6979,-1.6979,-1.698,-1.698,-1.698,-1.698,-1.6847,-1.6861,-1.6907,-1.6942,-1.6967,-1.6999,-1.7018,-1.7042,-1.7068,-1.7061,-1.7061,-1.7045,-1.6921,-1.6891,-1.6986,-1.6985,-1.6984,-1.6984,-1.6983,-1.6992,-1.6958,-1.7029,-1.7053,-1.7094,-1.7138,-1.713,-1.718,-1.7199,-1.7226,-1.7204,-1.7113,-1.7103,-1.7093,-1.7068,-1.7204,-1.7204,-1.7204,-1.7204,-1.7071,-1.7065,-1.7135,-1.7174,-1.7212,-1.7211,-1.7291,-1.7307,-1.7317,-1.7329,-1.7309,-1.7274,-1.7264,-1.7261,-1.7247,-1.7224,-1.7396,-1.7396,-1.7396,-1.7161,-1.7157,-1.7227,-1.7235,-1.7266,-1.7293,-1.7368,-1.7414,-1.7419,-1.7404,-1.7339,-1.733,-1.7275,-1.7257,-1.7242,-1.7221,-1.7178,0,0]},{"header":{"parameterUnit":"m.s-1","parameterCategory":1,"la1":30.2992,"la2":30.254,"lo1":-89.0895,"lo2":-89.0443,"dy":0.0025,"dx":0.0025,"nx":19,"ny":19,"refTime":"2026-04-04T03:00:00:Z","depth":0,"parameterNumber":3,"parameterNumberName":"V-component_of_WINDS"},"data":[0,0,0,-7.0841,-7.0845,-7.0984,-7.0984,-7.1179,-7.1181,0,0,0,0,0,0,0,0,0,0,0,-7.0814,-7.0816,-7.0841,-7.0845,-7.0984,-7.0984,-7.1179,-7.1181,0,0,0,0,0,0,0,0,0,0,0,-7.0814,-7.0816,-7.0818,-7.0846,-7.0984,-7.0984,-7.1179,-7.1067,0,0,0,0,0,0,0,0,0,0,-7.0928,-7.0918,-7.0815,-7.0818,-7.0846,-7.0983,-7.0984,-7.1061,-7.1074,-7.1125,0,-7.1178,0,-7.1184,-7.1196,-7.1197,0,0,0,-7.0833,-7.0908,-7.0933,-7.0819,-7.0848,-7.0983,-7.0918,-7.1068,-7.1082,-7.1142,-7.1181,-7.1188,-7.1187,-7.1197,-7.1198,-7.1546,-7.1548,0,0,-7.0825,-7.0846,-7.0923,-7.0943,-7.0927,-7.0913,-7.0922,-7.1076,-7.1118,-7.1182,-7.1192,-7.119,-7.1199,-7.12,-7.1544,-7.1547,0,0,0,-7.0811,-7.0841,-7.0862,-7.0936,-7.096,-7.0918,-7.0928,-7.1111,-7.1116,-7.1194,-7.1192,-7.12,-7.1203,-7.1542,-7.1545,-7.1676,0,0,0,-7.0806,-7.0833,-7.0859,-7.0873,-7.0957,-7.1038,-7.096,-7.1106,-7.1122,-7.1191,-7.12,-7.1205,-7.1539,-7.1543,-7.1667,-7.1734,0,0,0,-7.08,-7.0832,-7.0858,-7.0874,-7.0935,-7.1035,-7.1049,-7.1109,-7.1122,-7.1197,-7.1205,-7.1538,-7.1543,-7.1659,-7.1721,-7.1833,0,0,0,-7.0799,-7.0969,-7.086,-7.1049,-7.0934,-7.1116,-7.1047,-7.118,-7.126,-7.1201,-7.154,-7.1545,-7.1657,-7.1713,-7.1825,-7.1932,-7.1979,0,0,-7.1025,-7.0997,-7.1107,-7.1013,-7.1221,-7.1093,-7.1318,-7.1368,-7.1353,-7.1482,-7.149,-7.167,-7.172,-7.1831,-7.2231,-7.2269,0,0,0,-7.1185,-7.1265,-7.1315,-7.1394,-7.144,-7.1483,-7.1498,-7.1517,-7.1626,-7.1425,-7.1739,-7.1768,-7.1833,-7.1883,-7.1915,-7.1969,-7.1569,-7.1568,-7.1568,-7.1535,-7.1511,-7.1691,-7.1684,-7.1761,-7.1776,-7.1835,-7.1863,-7.1812,-7.1887,-7.1925,-7.2172,-7.2231,-7.2255,-7.2312,-7.1979,-7.198,-7.198,-7.198,-7.1864,-7.1973,-7.1907,-7.2058,-7.203,-7.2155,-7.2175,-7.2136,-7.2246,-7.214,-7.2196,-7.2083,-7.2297,-7.2345,-7.199,-7.1988,-7.1987,-7.1986,-7.1986,-7.2092,-7.214,-7.2162,-7.2276,-7.2364,-7.2349,-7.2461,-7.243,-7.2401,-7.2456,-7.2494,-7.2491,-7.2486,-7.2476,-7.2477,-7.2478,-7.2479,-7.2479,-7.248,-7.2319,-7.234,-7.244,-7.2504,-7.2552,-7.261,-7.2627,-7.2671,-7.2712,-7.2681,-7.2681,-7.2625,-7.2323,-7.2248,-7.2493,-7.2491,-7.2489,-7.2488,-7.2487,-7.2663,-7.2581,-7.2735,-7.2784,-7.2857,-7.2948,-7.2908,-7.3002,-7.3033,-7.3089,-7.3021,-7.2802,-7.277,-7.2745,-7.2683,-7.3025,-7.3025,-7.3025,-7.3025,-7.2856,-7.2838,-7.2989,-7.3069,-7.3142,-7.3123,-7.3295,-7.3309,-7.331,-7.3328,-7.3274,-7.3189,-7.3164,-7.3147,-7.3112,-7.3054,-7.3483,-7.3484,-7.3484,-7.3067,-7.3055,-7.321,-7.3214,-7.3269,-7.3317,-7.3478,-7.3569,-7.3552,-7.3502,-7.3342,-7.3323,-7.3185,-7.3141,-7.3088,-7.3036,-7.2928,0,0]}]]